Stations météo

réclame
Mon MeteoGroup
Ponza, Italie (16280): Température de l'air & dewpoint: 16.10.2017 06:00:00 - 22.10.2017 06:00:00 (CEST)Ponza, Italie (16280): Vitesse du vent: 16.10.2017 06:00:00 - 22.10.2017 06:00:00 (CEST)Ponza, Italie (16280): Direction du vent: 16.10.2017 06:00:00 - 22.10.2017 06:00:00 (CEST)Ponza, Italie (16280): reduced air pressure: 16.10.2017 06:00:00 - 22.10.2017 06:00:00 (CEST)Ponza, Italie (16280): visibility: 16.10.2017 06:00:00 - 22.10.2017 06:00:00 (CEST)Ponza, Italie (16280): Ensoleillement: 16.10.2017 06:00:00 - 22.10.2017 06:00:00 (CEST)
Date & Time tt [°C] td [°C] ff [km/h] ff [knt] dd ppp [hPa] vv [km] sd [min]
22.10.2017 06:00:00 18,6 17,6 11 6 S 1018,9 10 -
22.10.2017 05:00:00 18,6 17,6 11 6 SSW 1019,0 10 -
22.10.2017 04:00:00 18,2 17,5 11 6 SSW 1019,6 10 -
22.10.2017 03:00:00 17,8 17,2 16 9 WNW 1019,6 10 -
22.10.2017 02:00:00 17,8 17,2 15 8 NW 1019,8 10 -
22.10.2017 01:00:00 17,8 17,0 15 8 WNW 1019,8 10 -
22.10.2017 00:00:00 18,0 17,2 16 9 NW 1019,5 10 -
21.10.2017 23:00:00 18,0 17,0 9 5 WNW 1019,8 10 -
21.10.2017 22:00:00 18,0 17,2 15 8 NNW 1019,8 10 -
21.10.2017 21:00:00 18,2 17,2 13 7 WNW 1020,0 15 -
21.10.2017 20:00:00 18,0 16,0 9 5 WNW 1019,9 15 -
21.10.2017 19:00:00 18,2 15,1 9 5 NW 1019,6 15 -
21.10.2017 18:00:00 19,0 15,3 8 4 WNW 1019,5 15 60
21.10.2017 17:00:00 20,4 15,8 11 6 WNW 1019,6 15 60
21.10.2017 16:00:00 20,0 15,2 9 5 WNW 1019,6 20 60
21.10.2017 15:00:00 20,2 15,6 11 6 WNW 1019,6 20 60
21.10.2017 14:00:00 20,0 16,3 9 5 WNW 1019,8 15 60
21.10.2017 13:00:00 19,8 16,7 5 3 NNW 1020,7 10 60
21.10.2017 12:00:00 19,6 16,6 8 4 NNW 1020,6 10 60
21.10.2017 11:00:00 19,0 17,3 4 2 NW 1020,8 10 60
21.10.2017 10:00:00 19,0 16,6 4 2 WNW 1020,5 10 60
21.10.2017 09:00:00 17,6 16,0 4 2 NW 1020,0 10 60
21.10.2017 08:00:00 17,0 15,0 9 5 SSW 1019,8 10 24
21.10.2017 07:00:00 17,0 16,2 5 3 SSW 1019,8 10 -
21.10.2017 06:00:00 17,0 16,2 16 9 N 1019,7 10 -
21.10.2017 05:00:00 17,0 16,0 15 8 N 1019,7 10 -
21.10.2017 04:00:00 17,0 16,4 13 7 N 1019,7 10 -
21.10.2017 03:00:00 17,2 16,9 16 9 N 1019,8 10 -
21.10.2017 02:00:00 17,2 16,9 15 8 N 1019,8 10 -
21.10.2017 01:00:00 17,4 16,8 13 7 N 1019,8 10 -
21.10.2017 00:00:00 17,6 16,3 8 4 N 1019,6 10 -
20.10.2017 23:00:00 17,4 15,6 9 5 NNW 1019,7 10 -
20.10.2017 22:00:00 17,6 16,6 16 9 N 1019,6 10 -
20.10.2017 21:00:00 16,8 15,2 11 6 SSW 1018,8 10 -
20.10.2017 20:00:00 17,0 15,0 11 6 SSW 1018,8 10 -
20.10.2017 19:00:00 18,0 15,8 9 5 SSW 1018,6 10 -
20.10.2017 18:00:00 19,4 15,9 9 5 SSW 1018,3 10 24
20.10.2017 17:00:00 19,8 15,2 5 3 E 1017,7 10 60
20.10.2017 16:00:00 20,2 15,4 8 4 ESE 1017,7 10 60
20.10.2017 15:00:00 21,0 15,8 8 4 E 1018,4 10 60
20.10.2017 14:00:00 21,8 17,0 9 5 ENE 1018,5 10 60
20.10.2017 13:00:00 21,6 16,8 8 4 ENE 1018,6 10 60
20.10.2017 12:00:00 21,8 17,4 5 3 NE 1018,5 10 60
20.10.2017 11:00:00 21,2 17,0 8 4 ENE 1018,6 10 60
20.10.2017 10:00:00 20,0 16,2 15 8 ESE 1018,3 10 60
20.10.2017 09:00:00 18,8 16,2 13 7 ESE 1017,6 10 42
20.10.2017 08:00:00 17,2 15,4 13 7 SE 1016,8 10 -
20.10.2017 07:00:00 17,0 15,5 13 7 SE 1016,8 10 -
20.10.2017 06:00:00 17,0 15,4 13 7 ESE 1016,8 10 -
20.10.2017 05:00:00 17,0 15,4 15 8 ESE 1016,8 10 -
20.10.2017 04:00:00 17,4 15,7 11 6 ESE 1016,8 10 -
20.10.2017 03:00:00 17,4 15,7 11 6 ESE 1016,7 10 -
20.10.2017 02:00:00 17,4 15,7 9 5 ESE 1016,7 10 -
20.10.2017 01:00:00 17,4 15,7 11 6 ESE 1016,7 10 -
20.10.2017 00:00:00 17,8 15,8 13 7 ESE 1016,7 10 -
19.10.2017 23:00:00 17,8 16,0 13 7 ESE 1016,7 10 -
19.10.2017 22:00:00 18,0 16,3 15 8 ESE 1016,7 10 -
19.10.2017 21:00:00 18,0 16,2 5 3 S 1016,8 10 -
19.10.2017 20:00:00 17,8 16,0 9 5 S 1016,8 10 -
19.10.2017 19:00:00 17,8 16,0 16 9 E 1016,4 10 -
19.10.2017 18:00:00 18,2 16,0 13 7 S 1016,6 10 -
19.10.2017 17:00:00 18,6 15,5 13 7 E 1016,6 10 42
19.10.2017 16:00:00 19,6 15,5 16 9 E 1016,8 10 60
19.10.2017 15:00:00 20,4 15,6 15 8 E 1017,0 10 60
19.10.2017 14:00:00 20,8 15,6 13 7 E 1017,6 10 30
19.10.2017 13:00:00 21,8 16,1 9 5 E 1017,9 10 48
19.10.2017 12:00:00 21,2 16,0 9 5 E 1017,8 10 12
19.10.2017 11:00:00 20,0 15,4 9 5 ESE 1017,8 10 0
19.10.2017 10:00:00 19,4 15,1 4 2 E 1017,7 10 60
19.10.2017 09:00:00 18,0 14,3 5 3 ESE 1017,7 10 60
19.10.2017 08:00:00 17,0 14,1 8 4 SSE 1016,8 10 -
19.10.2017 07:00:00 17,0 14,1 8 4 SE 1017,6 10 -
19.10.2017 06:00:00 18,6 15,5 0 0 N 1017,5 10 -
19.10.2017 05:00:00 16,8 13,9 5 3 S 1017,7 10 -
19.10.2017 04:00:00 16,6 13,9 9 5 S 1017,8 10 -
19.10.2017 03:00:00 16,8 14,3 5 3 S 1018,6 10 -
19.10.2017 02:00:00 16,6 14,3 9 5 S 1018,7 10 -
19.10.2017 01:00:00 16,8 14,8 5 3 S 1018,9 10 -
19.10.2017 00:00:00 16,8 15,0 0 0 N 1018,9 15 -
18.10.2017 23:00:00 16,6 14,8 0 0 N 1018,5 10 -
18.10.2017 22:00:00 16,8 14,6 0 0 N 1018,5 10 -
18.10.2017 21:00:00 17,2 14,8 0 0 N 1018,5 10 -
18.10.2017 20:00:00 17,4 14,9 0 0 N 1018,3 10 -
18.10.2017 19:00:00 17,6 13,1 4 2 WNW 1018,2 10 -
18.10.2017 18:00:00 18,8 15,1 4 2 NW 1018,2 10 0
18.10.2017 17:00:00 19,6 15,5 4 2 NW 1018,2 10 60
18.10.2017 16:00:00 20,0 15,4 4 2 SSE 1018,4 10 60
18.10.2017 15:00:00 19,6 15,5 4 2 NNE 1019,0 10 60
18.10.2017 14:00:00 19,4 15,5 4 2 NNE 1019,7 10 48
18.10.2017 13:00:00 19,4 15,3 0 0 N 1020,7 10 6
18.10.2017 12:00:00 20,2 15,4 0 0 N 1020,8 10 54
18.10.2017 11:00:00 19,6 15,5 0 0 N 1020,9 10 60
18.10.2017 10:00:00 18,4 14,5 0 0 N 1020,9 10 42
18.10.2017 09:00:00 17,4 15,0 0 0 N 1020,3 10 0
18.10.2017 08:00:00 16,6 13,9 0 0 N 1020,7 10 -
18.10.2017 07:00:00 16,6 14,8 0 0 N 1020,8 10 -
18.10.2017 06:00:00 18,2 16,0 0 0 N 1020,9 10 -
18.10.2017 05:00:00 16,8 14,8 4 2 WNW 1021,5 8 -
18.10.2017 04:00:00 17,0 15,2 4 2 NW 1022,8 8 -
18.10.2017 03:00:00 17,0 16,0 8 4 WNW 1023,3 8 -
18.10.2017 02:00:00 17,0 16,0 4 2 W 1023,2 10 -
18.10.2017 01:00:00 17,0 16,0 8 4 WNW 1022,8 10 -
18.10.2017 00:00:00 17,2 16,4 8 4 WNW 1023,0 10 -
17.10.2017 23:00:00 17,2 16,4 8 4 WNW 1023,0 10 -
17.10.2017 22:00:00 17,6 16,0 5 3 WSW 1023,1 10 -
17.10.2017 21:00:00 17,8 16,3 0 0 N 1022,8 10 -
17.10.2017 20:00:00 18,2 16,4 8 4 SSW 1023,1 10 -
17.10.2017 19:00:00 18,4 16,5 0 0 N 1022,7 10 -
17.10.2017 18:00:00 19,2 16,8 8 4 W 1022,7 10 60
17.10.2017 17:00:00 20,6 16,8 5 3 S 1022,8 10 60
17.10.2017 16:00:00 20,8 16,8 5 3 SE 1023,6 10 60
17.10.2017 15:00:00 21,2 17,0 8 4 SE 1024,1 10 60
17.10.2017 14:00:00 21,6 16,8 5 3 E 1024,8 10 60
17.10.2017 13:00:00 21,8 17,0 8 4 ENE 1025,1 10 60
17.10.2017 12:00:00 20,4 16,4 8 4 SSE 1025,1 10 60
17.10.2017 11:00:00 20,2 16,4 11 6 SSE 1025,1 10 60
17.10.2017 10:00:00 19,6 16,4 8 4 SSE 1025,1 10 60
17.10.2017 09:00:00 19,0 16,6 4 2 SSE 1025,0 10 60
17.10.2017 08:00:00 17,0 15,2 2 1 SSE 1025,0 9 0
17.10.2017 07:00:00 17,0 15,4 2 1 S 1024,6 7 -
17.10.2017 06:00:00 17,0 15,9 4 2 SSW 1025,1 7 -
17.10.2017 05:00:00 17,2 16,2 0 0 N 1025,1 8 -
17.10.2017 04:00:00 17,2 16,4 0 0 N 1025,0 8 -
17.10.2017 03:00:00 17,6 16,8 0 0 N 1025,7 8 -
17.10.2017 02:00:00 17,8 17,2 0 0 N 1025,8 8 -
17.10.2017 01:00:00 18,0 17,2 0 0 N 1026,1 8 -
17.10.2017 00:00:00 18,0 17,2 0 0 N 1026,1 8 -
16.10.2017 23:00:00 18,2 17,5 5 3 N 1026,1 10 -
16.10.2017 22:00:00 18,4 17,4 0 0 N 1026,1 10 -
16.10.2017 21:00:00 18,4 17,4 9 5 SW 1025,8 10 -
16.10.2017 20:00:00 18,8 17,8 9 5 SSW 1025,6 10 -
16.10.2017 19:00:00 19,8 17,8 11 6 SW 1025,3 10 0
16.10.2017 18:00:00 21,0 18,0 8 4 SSW 1025,2 10 0
16.10.2017 17:00:00 22,0 18,0 8 4 S 1025,5 10 60
16.10.2017 16:00:00 23,0 18,1 5 3 S 1025,8 10 60
16.10.2017 15:00:00 22,4 18,2 8 4 SW 1026,2 10 60
16.10.2017 14:00:00 22,0 18,0 4 2 SW 1026,7 10 60
16.10.2017 13:00:00 21,2 18,4 8 4 WNW 1027,5 7 60
16.10.2017 12:00:00 20,2 17,8 0 0 N 1027,4 6 60
16.10.2017 11:00:00 20,4 18,4 0 0 N 1026,7 5 60
16.10.2017 10:00:00 19,4 17,7 0 0 N 1026,3 5 60
16.10.2017 09:00:00 18,0 17,2 0 0 N 1026,4 3,0 24
16.10.2017 08:00:00 17,8 17,3 8 4 NNW 1025,8 3,0 0
16.10.2017 07:00:00 17,6 17,0 8 4 NNW 1025,8 5 -
16.10.2017 06:00:00 17,8 17,0 9 5 NW 1025,9 8 -

tt = Température de l'air
td = dewpoint
ff = Vitesse du vent
dd = Direction du vent
ppp = reduced air pressure
vv = visibility
sd = Ensoleillement

stations d'obs. à proximité